Year,Month,Day,Hour,Minute,Value (Times are PST for temperature in C)
2011,08,10,00,00,14.80
2011,08,10,00,01,14.80
2011,08,10,00,02,14.80
2011,08,10,00,03,14.80
2011,08,10,00,04,14.80
2011,08,10,00,05,14.80
2011,08,10,00,06,14.80
2011,08,10,00,07,14.80
2011,08,10,00,08,14.80
2011,08,10,00,09,14.80
2011,08,10,00,10,14.80
2011,08,10,00,11,14.70
2011,08,10,00,12,14.70
2011,08,10,00,13,14.70
2011,08,10,00,14,14.70
2011,08,10,00,15,14.70
2011,08,10,00,16,14.70
2011,08,10,00,17,14.70
2011,08,10,00,18,14.70
2011,08,10,00,19,14.70
2011,08,10,00,20,14.70
2011,08,10,00,21,14.70
2011,08,10,00,22,14.70
2011,08,10,00,23,14.70
2011,08,10,00,24,14.70
2011,08,10,00,25,14.70
2011,08,10,00,26,14.70
2011,08,10,00,27,14.70
2011,08,10,00,28,14.70
2011,08,10,00,29,14.60
2011,08,10,00,30,14.60
2011,08,10,00,31,14.60
2011,08,10,00,32,14.60
2011,08,10,00,33,14.60
2011,08,10,00,34,14.60
2011,08,10,00,35,14.60
2011,08,10,00,36,14.60
2011,08,10,00,37,14.60
2011,08,10,00,38,14.60
2011,08,10,00,39,14.60
2011,08,10,00,40,14.60
2011,08,10,00,41,14.50
2011,08,10,00,42,14.50
2011,08,10,00,43,14.50
2011,08,10,00,44,14.50
2011,08,10,00,45,14.40
2011,08,10,00,46,14.40
2011,08,10,00,47,14.40
2011,08,10,00,48,14.40
2011,08,10,00,49,14.30
2011,08,10,00,50,14.30
2011,08,10,00,51,14.30
2011,08,10,00,52,14.30
2011,08,10,00,53,14.30
2011,08,10,00,54,14.30
2011,08,10,00,55,14.20
2011,08,10,00,56,14.20
2011,08,10,00,57,14.20
2011,08,10,00,58,14.20
2011,08,10,00,59,14.20
2011,08,10,01,00,14.20
2011,08,10,01,01,14.10
2011,08,10,01,02,14.10
2011,08,10,01,03,14.10
2011,08,10,01,04,14.10
2011,08,10,01,05,14.00
2011,08,10,01,06,14.00
2011,08,10,01,07,14.00
2011,08,10,01,08,13.90
2011,08,10,01,09,13.90
2011,08,10,01,10,13.90
2011,08,10,01,11,13.90
2011,08,10,01,12,13.90
2011,08,10,01,13,13.90
2011,08,10,01,14,13.90
2011,08,10,01,15,13.80
2011,08,10,01,16,13.80
2011,08,10,01,17,13.80
2011,08,10,01,18,13.80
2011,08,10,01,19,13.80
2011,08,10,01,20,13.70
2011,08,10,01,21,13.70
2011,08,10,01,22,13.70
2011,08,10,01,23,13.70
2011,08,10,01,24,13.70
2011,08,10,01,25,13.60
2011,08,10,01,26,13.60
2011,08,10,01,27,13.60
2011,08,10,01,28,13.60
2011,08,10,01,29,13.60
2011,08,10,01,30,13.50
2011,08,10,01,31,13.50
2011,08,10,01,32,13.50
2011,08,10,01,33,13.50
2011,08,10,01,34,13.50
2011,08,10,01,35,13.40
2011,08,10,01,36,13.40
2011,08,10,01,37,13.40
2011,08,10,01,38,13.40
2011,08,10,01,39,13.40
2011,08,10,01,40,13.30
2011,08,10,01,41,13.30
2011,08,10,01,42,13.30
2011,08,10,01,43,13.20
2011,08,10,01,44,13.20
2011,08,10,01,45,13.20
2011,08,10,01,46,13.20
2011,08,10,01,47,13.20
2011,08,10,01,48,13.10
2011,08,10,01,49,13.10
2011,08,10,01,50,13.10
2011,08,10,01,51,13.00
2011,08,10,01,52,13.00
2011,08,10,01,53,13.00
2011,08,10,01,54,12.90
2011,08,10,01,55,12.90
2011,08,10,01,56,12.90
2011,08,10,01,57,12.80
2011,08,10,01,58,12.80
2011,08,10,01,59,12.80
2011,08,10,02,00,12.80
2011,08,10,02,01,12.70
2011,08,10,02,02,12.70
2011,08,10,02,03,12.70
2011,08,10,02,04,12.70
2011,08,10,02,05,12.70
2011,08,10,02,06,12.60
2011,08,10,02,07,12.60
2011,08,10,02,08,12.60
2011,08,10,02,09,12.60
2011,08,10,02,10,12.60
2011,08,10,02,11,12.60
2011,08,10,02,12,12.60
2011,08,10,02,13,12.60
2011,08,10,02,14,12.60
2011,08,10,02,15,12.60
2011,08,10,02,16,12.60
2011,08,10,02,17,12.60
2011,08,10,02,18,12.60
2011,08,10,02,19,12.70
2011,08,10,02,20,12.70
2011,08,10,02,21,12.70
2011,08,10,02,22,12.70
2011,08,10,02,23,12.70
2011,08,10,02,24,12.70
2011,08,10,02,25,12.80
2011,08,10,02,26,12.80
2011,08,10,02,27,12.80
2011,08,10,02,28,12.80
2011,08,10,02,29,12.80
2011,08,10,02,30,12.80
2011,08,10,02,31,12.80
2011,08,10,02,32,12.80
2011,08,10,02,33,12.70
2011,08,10,02,34,12.70
2011,08,10,02,35,12.70
2011,08,10,02,36,12.70
2011,08,10,02,37,12.70
2011,08,10,02,38,12.70
2011,08,10,02,39,12.70
2011,08,10,02,40,12.80
2011,08,10,02,41,12.80
2011,08,10,02,42,12.70
2011,08,10,02,43,12.70
2011,08,10,02,44,12.70
2011,08,10,02,45,12.70
2011,08,10,02,46,12.70
2011,08,10,02,47,12.70
2011,08,10,02,48,12.70
2011,08,10,02,49,12.70
2011,08,10,02,50,12.70
2011,08,10,02,51,12.70
2011,08,10,02,52,12.70
2011,08,10,02,53,12.70
2011,08,10,02,54,12.70
2011,08,10,02,55,12.60
2011,08,10,02,56,12.60
2011,08,10,02,57,12.60
2011,08,10,02,58,12.60
2011,08,10,02,59,12.60
2011,08,10,03,00,12.60
2011,08,10,03,01,12.60
2011,08,10,03,02,12.60
2011,08,10,03,03,12.60
2011,08,10,03,04,12.60
2011,08,10,03,05,12.60
2011,08,10,03,06,12.60
2011,08,10,03,07,12.60
2011,08,10,03,08,12.60
2011,08,10,03,09,12.60
2011,08,10,03,10,12.50
2011,08,10,03,11,12.50
2011,08,10,03,12,12.50
2011,08,10,03,13,12.50
2011,08,10,03,14,12.50
2011,08,10,03,15,12.50
2011,08,10,03,16,12.40
2011,08,10,03,17,12.40
2011,08,10,03,18,12.40
2011,08,10,03,19,12.40
2011,08,10,03,20,12.40
2011,08,10,03,21,12.40
2011,08,10,03,22,12.50
2011,08,10,03,23,12.50
2011,08,10,03,24,12.50
2011,08,10,03,25,12.50
2011,08,10,03,26,12.50
2011,08,10,03,27,12.50
2011,08,10,03,28,12.60
2011,08,10,03,29,12.60
2011,08,10,03,30,12.60
2011,08,10,03,31,12.60
2011,08,10,03,32,12.60
2011,08,10,03,33,12.60
2011,08,10,03,34,12.60
2011,08,10,03,35,12.60
2011,08,10,03,36,12.60
2011,08,10,03,37,12.60
2011,08,10,03,38,12.60
2011,08,10,03,39,12.60
2011,08,10,03,40,12.60
2011,08,10,03,41,12.60
2011,08,10,03,42,12.60
2011,08,10,03,43,12.60
2011,08,10,03,44,12.60
2011,08,10,03,45,12.60
2011,08,10,03,46,12.60
2011,08,10,03,47,12.60
2011,08,10,03,48,12.60
2011,08,10,03,49,12.60
2011,08,10,03,50,12.60
2011,08,10,03,51,12.60
2011,08,10,03,52,12.60
2011,08,10,03,53,12.60
2011,08,10,03,54,12.60
2011,08,10,03,55,12.60
2011,08,10,03,56,12.60
2011,08,10,03,57,12.60
2011,08,10,03,58,12.60
2011,08,10,03,59,12.50
2011,08,10,04,00,12.50
2011,08,10,04,01,12.50
2011,08,10,04,02,12.50
2011,08,10,04,03,12.50
2011,08,10,04,04,12.50
2011,08,10,04,05,12.50
2011,08,10,04,06,12.50
2011,08,10,04,07,12.40
2011,08,10,04,08,12.40
2011,08,10,04,09,12.40
2011,08,10,04,10,12.40
2011,08,10,04,11,12.40
2011,08,10,04,12,12.40
2011,08,10,04,13,12.40
2011,08,10,04,14,12.40
2011,08,10,04,15,12.40
2011,08,10,04,16,12.40
2011,08,10,04,17,12.40
2011,08,10,04,18,12.40
2011,08,10,04,19,12.30
2011,08,10,04,20,12.30
2011,08,10,04,21,12.30
2011,08,10,04,22,12.30
2011,08,10,04,23,12.30
2011,08,10,04,24,12.30
2011,08,10,04,25,12.30
2011,08,10,04,26,12.30
2011,08,10,04,27,12.30
2011,08,10,04,28,12.30
2011,08,10,04,29,12.30
2011,08,10,04,30,12.30
2011,08,10,04,31,12.30
2011,08,10,04,32,12.30
2011,08,10,04,33,12.30
2011,08,10,04,34,12.30
2011,08,10,04,35,12.30
2011,08,10,04,36,12.30
2011,08,10,04,37,12.20
2011,08,10,04,38,12.20
2011,08,10,04,39,12.20
2011,08,10,04,40,12.20
2011,08,10,04,41,12.20
2011,08,10,04,42,12.20
2011,08,10,04,43,12.20
2011,08,10,04,44,12.20
2011,08,10,04,45,12.20
2011,08,10,04,46,12.20
2011,08,10,04,47,12.10
2011,08,10,04,48,12.10
2011,08,10,04,49,12.10
2011,08,10,04,50,12.10
2011,08,10,04,51,12.00
2011,08,10,04,52,12.00
2011,08,10,04,53,12.00
2011,08,10,04,54,11.90
2011,08,10,04,55,11.90
2011,08,10,04,56,11.90
2011,08,10,04,57,11.80
2011,08,10,04,58,11.80
2011,08,10,04,59,11.80
2011,08,10,05,00,11.80
2011,08,10,05,01,11.80
2011,08,10,05,02,11.80
2011,08,10,05,03,11.80
2011,08,10,05,04,11.70
2011,08,10,05,05,11.70
2011,08,10,05,06,11.70
2011,08,10,05,07,11.60
2011,08,10,05,08,11.60
2011,08,10,05,09,11.60
2011,08,10,05,10,11.50
2011,08,10,05,11,11.50
2011,08,10,05,12,11.50
2011,08,10,05,13,11.40
2011,08,10,05,14,11.40
2011,08,10,05,15,11.40
2011,08,10,05,16,11.40
2011,08,10,05,17,11.40
2011,08,10,05,18,11.30
2011,08,10,05,19,11.30
2011,08,10,05,20,11.30
2011,08,10,05,21,11.30
2011,08,10,05,22,11.30
2011,08,10,05,23,11.30
2011,08,10,05,24,11.30
2011,08,10,05,25,11.20
2011,08,10,05,26,11.20
2011,08,10,05,27,11.20
2011,08,10,05,28,11.20
2011,08,10,05,29,11.20
2011,08,10,05,30,11.20
2011,08,10,05,31,11.20
2011,08,10,05,32,11.20
2011,08,10,05,33,11.20
2011,08,10,05,34,11.20
2011,08,10,05,35,11.20
2011,08,10,05,36,11.20
2011,08,10,05,37,11.20
2011,08,10,05,38,11.20
2011,08,10,05,39,11.20
2011,08,10,05,40,11.10
2011,08,10,05,41,11.10
2011,08,10,05,42,11.10
2011,08,10,05,43,11.10
2011,08,10,05,44,11.00
2011,08,10,05,45,11.00
2011,08,10,05,46,11.00
2011,08,10,05,47,11.00
2011,08,10,05,48,11.00
2011,08,10,05,49,11.00
2011,08,10,05,50,11.00
2011,08,10,05,51,11.00
2011,08,10,05,52,11.00
2011,08,10,05,53,11.00
2011,08,10,05,54,11.00
2011,08,10,05,55,11.00
2011,08,10,05,56,11.00
2011,08,10,05,57,11.00
2011,08,10,05,58,11.00
2011,08,10,05,59,10.90
2011,08,10,06,00,10.90
2011,08,10,06,01,10.90
2011,08,10,06,02,10.90
2011,08,10,06,03,10.90
2011,08,10,06,04,10.90
2011,08,10,06,05,10.90
2011,08,10,06,06,10.80
2011,08,10,06,07,10.80
2011,08,10,06,08,10.80
2011,08,10,06,09,10.80
2011,08,10,06,10,10.80
2011,08,10,06,11,10.80
2011,08,10,06,12,10.80
2011,08,10,06,13,10.80
2011,08,10,06,14,10.80
2011,08,10,06,15,10.80
2011,08,10,06,16,10.80
2011,08,10,06,17,10.80
2011,08,10,06,18,10.80
2011,08,10,06,19,10.80
2011,08,10,06,20,10.70
2011,08,10,06,21,10.70
2011,08,10,06,22,10.70
2011,08,10,06,23,10.70
2011,08,10,06,24,10.70
2011,08,10,06,25,10.70
2011,08,10,06,26,10.70
2011,08,10,06,27,10.70
2011,08,10,06,28,10.70
2011,08,10,06,29,10.70
2011,08,10,06,30,10.70
2011,08,10,06,31,10.70
2011,08,10,06,32,10.70
2011,08,10,06,33,10.70
2011,08,10,06,34,10.70
2011,08,10,06,35,10.70
2011,08,10,06,36,10.70
2011,08,10,06,37,10.70
2011,08,10,06,38,10.70
2011,08,10,06,39,10.70
2011,08,10,06,40,10.70
2011,08,10,06,41,10.70
2011,08,10,06,42,10.70
2011,08,10,06,43,10.70
2011,08,10,06,44,10.70
2011,08,10,06,45,10.70
2011,08,10,06,46,10.70
2011,08,10,06,47,10.70
2011,08,10,06,48,10.70
2011,08,10,06,49,10.70
2011,08,10,06,50,10.70
2011,08,10,06,51,10.70
2011,08,10,06,52,10.80
2011,08,10,06,53,10.80
2011,08,10,06,54,10.80
2011,08,10,06,55,10.80
2011,08,10,06,56,10.80
2011,08,10,06,57,10.80
2011,08,10,06,58,10.80
2011,08,10,06,59,10.90
2011,08,10,07,00,10.90
2011,08,10,07,01,10.90
2011,08,10,07,02,10.90
2011,08,10,07,03,11.00
2011,08,10,07,04,11.10
2011,08,10,07,05,11.10
2011,08,10,07,06,11.20
2011,08,10,07,07,11.20
2011,08,10,07,08,11.30
2011,08,10,07,09,11.30
2011,08,10,07,10,11.30
2011,08,10,07,11,11.40
2011,08,10,07,12,11.40
2011,08,10,07,13,11.50
2011,08,10,07,14,11.50
2011,08,10,07,15,11.50
2011,08,10,07,16,11.50
2011,08,10,07,17,11.60
2011,08,10,07,18,11.60
2011,08,10,07,19,11.60
2011,08,10,07,20,11.70
2011,08,10,07,21,11.70
2011,08,10,07,22,11.80
2011,08,10,07,23,11.80
2011,08,10,07,24,11.90
2011,08,10,07,25,11.90
2011,08,10,07,26,12.00
2011,08,10,07,27,12.10
2011,08,10,07,28,12.10
2011,08,10,07,29,12.10
2011,08,10,07,30,12.20
2011,08,10,07,31,12.20
2011,08,10,07,32,12.30
2011,08,10,07,33,12.30
2011,08,10,07,34,12.40
2011,08,10,07,35,12.40
2011,08,10,07,36,12.50
2011,08,10,07,37,12.50
2011,08,10,07,38,12.60
2011,08,10,07,39,12.60
2011,08,10,07,40,12.70
2011,08,10,07,41,12.70
2011,08,10,07,42,12.80
2011,08,10,07,43,12.80
2011,08,10,07,44,12.90
2011,08,10,07,45,12.90
2011,08,10,07,46,12.90
2011,08,10,07,47,13.00
2011,08,10,07,48,13.10
2011,08,10,07,49,13.10
2011,08,10,07,50,13.20
2011,08,10,07,51,13.20
2011,08,10,07,52,13.20
2011,08,10,07,53,13.30
2011,08,10,07,54,13.40
2011,08,10,07,55,13.40
2011,08,10,07,56,13.40
2011,08,10,07,57,13.50
2011,08,10,07,58,13.50
2011,08,10,07,59,13.60
2011,08,10,08,00,13.60
2011,08,10,08,01,13.60
2011,08,10,08,02,13.70
2011,08,10,08,03,13.70
2011,08,10,08,04,13.70
2011,08,10,08,05,13.80
2011,08,10,08,06,13.80
2011,08,10,08,07,13.80
2011,08,10,08,08,13.80
2011,08,10,08,09,13.90
2011,08,10,08,10,13.90
2011,08,10,08,11,14.00
2011,08,10,08,12,14.10
2011,08,10,08,13,14.10
2011,08,10,08,14,14.20
2011,08,10,08,15,14.20
2011,08,10,08,16,14.30
2011,08,10,08,17,14.30
2011,08,10,08,18,14.30
2011,08,10,08,19,14.40
2011,08,10,08,20,14.40
2011,08,10,08,21,14.50
2011,08,10,08,22,14.60
2011,08,10,08,23,14.60
2011,08,10,08,24,14.60
2011,08,10,08,25,14.60
2011,08,10,08,26,14.70
2011,08,10,08,27,14.70
2011,08,10,08,28,14.70
2011,08,10,08,29,14.70
2011,08,10,08,30,14.70
2011,08,10,08,31,14.70
2011,08,10,08,32,14.80
2011,08,10,08,33,14.80
2011,08,10,08,34,14.90
2011,08,10,08,35,14.90
2011,08,10,08,36,14.90
2011,08,10,08,37,14.90
2011,08,10,08,38,15.00
2011,08,10,08,39,15.00
2011,08,10,08,40,15.10
2011,08,10,08,41,15.10
2011,08,10,08,42,15.10
2011,08,10,08,43,15.20
2011,08,10,08,44,15.20
2011,08,10,08,45,15.20
2011,08,10,08,46,15.20
2011,08,10,08,47,15.30
2011,08,10,08,48,15.30
2011,08,10,08,49,15.40
2011,08,10,08,50,15.50
2011,08,10,08,51,15.50
2011,08,10,08,52,15.60
2011,08,10,08,53,15.60
2011,08,10,08,54,15.70
2011,08,10,08,55,15.80
2011,08,10,08,56,15.80
2011,08,10,08,57,15.80
2011,08,10,08,58,15.90
2011,08,10,08,59,15.90
2011,08,10,09,00,15.90
2011,08,10,09,01,16.00
2011,08,10,09,02,16.00
2011,08,10,09,03,16.10
2011,08,10,09,04,16.10
2011,08,10,09,05,16.10
2011,08,10,09,06,16.10
2011,08,10,09,07,16.20
2011,08,10,09,08,16.20
2011,08,10,09,09,16.20
2011,08,10,09,10,16.30
2011,08,10,09,11,16.40
2011,08,10,09,12,16.50
2011,08,10,09,13,16.50
2011,08,10,09,14,16.60
2011,08,10,09,15,16.70
2011,08,10,09,16,16.70
2011,08,10,09,17,16.80
2011,08,10,09,18,16.80
2011,08,10,09,19,16.80
2011,08,10,09,20,16.90
2011,08,10,09,21,16.80
2011,08,10,09,22,16.80
2011,08,10,09,23,16.80
2011,08,10,09,24,16.80
2011,08,10,09,25,16.80
2011,08,10,09,26,16.90
2011,08,10,09,27,16.90
2011,08,10,09,28,17.00
2011,08,10,09,29,17.10
2011,08,10,09,30,17.20
2011,08,10,09,31,17.30
2011,08,10,09,32,17.30
2011,08,10,09,33,17.30
2011,08,10,09,34,17.30
2011,08,10,09,35,17.30
2011,08,10,09,36,17.30
2011,08,10,09,37,17.30
2011,08,10,09,38,17.30
2011,08,10,09,39,17.30
2011,08,10,09,40,17.40
2011,08,10,09,41,17.40
2011,08,10,09,42,17.40
2011,08,10,09,43,17.40
2011,08,10,09,44,17.40
2011,08,10,09,45,17.40
2011,08,10,09,46,17.40
2011,08,10,09,47,17.40
2011,08,10,09,48,17.40
2011,08,10,09,49,17.40
2011,08,10,09,50,17.40
2011,08,10,09,51,17.40
2011,08,10,09,52,17.40
2011,08,10,09,53,17.40
2011,08,10,09,54,17.40
2011,08,10,09,55,17.40
2011,08,10,09,56,17.50
2011,08,10,09,57,17.60
2011,08,10,09,58,17.70
2011,08,10,09,59,17.70
2011,08,10,10,00,17.80
2011,08,10,10,01,17.90
2011,08,10,10,02,17.90
2011,08,10,10,03,18.00
2011,08,10,10,04,18.00
2011,08,10,10,05,18.10
2011,08,10,10,06,18.10
2011,08,10,10,07,18.00
2011,08,10,10,08,18.00
2011,08,10,10,09,17.90
2011,08,10,10,10,17.90
2011,08,10,10,11,17.80
2011,08,10,10,12,17.80
2011,08,10,10,13,17.80
2011,08,10,10,14,17.80
2011,08,10,10,15,17.80
2011,08,10,10,16,17.80
2011,08,10,10,17,17.80
2011,08,10,10,18,17.80
2011,08,10,10,19,17.80
2011,08,10,10,20,17.80
2011,08,10,10,21,17.80
2011,08,10,10,22,17.90
2011,08,10,10,23,18.00
2011,08,10,10,24,18.00
2011,08,10,10,25,18.10
2011,08,10,10,26,18.10
2011,08,10,10,27,18.10
2011,08,10,10,28,18.10
2011,08,10,10,29,18.10
2011,08,10,10,30,18.10
2011,08,10,10,31,18.10
2011,08,10,10,32,18.10
2011,08,10,10,33,18.10
2011,08,10,10,34,18.10
2011,08,10,10,35,18.10
2011,08,10,10,36,18.10
2011,08,10,10,37,18.10
2011,08,10,10,38,18.00
2011,08,10,10,39,18.00
2011,08,10,10,40,18.00
2011,08,10,10,41,17.90
2011,08,10,10,42,17.90
2011,08,10,10,43,17.90
2011,08,10,10,44,17.90
2011,08,10,10,45,17.90
2011,08,10,10,46,17.90
2011,08,10,10,47,17.90
2011,08,10,10,48,18.00
2011,08,10,10,49,18.10
2011,08,10,10,50,18.20
2011,08,10,10,51,18.30
2011,08,10,10,52,18.30
2011,08,10,10,53,18.40
2011,08,10,10,54,18.40
2011,08,10,10,55,18.40
2011,08,10,10,56,18.40
2011,08,10,10,57,18.50
2011,08,10,10,58,18.50
2011,08,10,10,59,18.50
2011,08,10,11,00,18.60
2011,08,10,11,01,18.60
2011,08,10,11,02,18.70
2011,08,10,11,03,18.80
2011,08,10,11,04,18.80
2011,08,10,11,05,18.90
2011,08,10,11,06,19.00
2011,08,10,11,07,19.00
2011,08,10,11,08,19.10
2011,08,10,11,09,19.10
2011,08,10,11,10,19.10
2011,08,10,11,11,19.10
2011,08,10,11,12,19.10
2011,08,10,11,13,19.10
2011,08,10,11,14,19.10
2011,08,10,11,15,19.00
2011,08,10,11,16,18.90
2011,08,10,11,17,18.80
2011,08,10,11,18,18.70
2011,08,10,11,19,18.70
2011,08,10,11,20,18.70
2011,08,10,11,21,18.80
2011,08,10,11,22,18.80
2011,08,10,11,23,18.80
2011,08,10,11,24,18.80
2011,08,10,11,25,18.80
2011,08,10,11,26,18.90
2011,08,10,11,27,18.90
2011,08,10,11,28,18.80
2011,08,10,11,29,18.80
2011,08,10,11,30,18.70
2011,08,10,11,31,18.70
2011,08,10,11,32,18.70
2011,08,10,11,33,18.70
2011,08,10,11,34,18.70
2011,08,10,11,35,18.80
2011,08,10,11,36,18.80
2011,08,10,11,37,18.80
2011,08,10,11,38,18.90
2011,08,10,11,39,18.80
2011,08,10,11,40,18.80
2011,08,10,11,41,18.90
2011,08,10,11,42,18.90
2011,08,10,11,43,19.00
2011,08,10,11,44,19.20
2011,08,10,11,45,19.30
2011,08,10,11,46,19.40
2011,08,10,11,47,19.40
2011,08,10,11,48,19.40
2011,08,10,11,49,19.40
2011,08,10,11,50,19.40
2011,08,10,11,51,19.50
2011,08,10,11,52,19.50
2011,08,10,11,53,19.60
2011,08,10,11,54,19.60
2011,08,10,11,55,19.60
2011,08,10,11,56,19.60
2011,08,10,11,57,19.60
2011,08,10,11,58,19.60
2011,08,10,11,59,19.60
2011,08,10,12,00,19.60
2011,08,10,12,01,19.70
2011,08,10,12,02,19.70
2011,08,10,12,03,19.70
2011,08,10,12,04,19.80
2011,08,10,12,05,19.80
2011,08,10,12,06,19.70
2011,08,10,12,07,19.70
2011,08,10,12,08,19.60
2011,08,10,12,09,19.50
2011,08,10,12,10,19.40
2011,08,10,12,11,19.40
2011,08,10,12,12,19.30
2011,08,10,12,13,19.30
2011,08,10,12,14,19.30
2011,08,10,12,15,19.30
2011,08,10,12,16,19.20
2011,08,10,12,17,19.20
2011,08,10,12,18,19.20
2011,08,10,12,19,19.20
2011,08,10,12,20,19.20
2011,08,10,12,21,19.30
2011,08,10,12,22,19.30
2011,08,10,12,23,19.30
2011,08,10,12,24,19.30
2011,08,10,12,25,19.20
2011,08,10,12,26,19.20
2011,08,10,12,27,19.10
2011,08,10,12,28,19.10
2011,08,10,12,29,19.10
2011,08,10,12,30,19.00
2011,08,10,12,31,18.90
2011,08,10,12,32,18.70
2011,08,10,12,33,18.50
2011,08,10,12,34,18.30
2011,08,10,12,35,18.20
2011,08,10,12,36,18.10
2011,08,10,12,37,18.00
2011,08,10,12,38,17.90
2011,08,10,12,39,17.80
2011,08,10,12,40,17.80
2011,08,10,12,41,17.80
2011,08,10,12,42,17.80
2011,08,10,12,43,17.80
2011,08,10,12,44,17.80
2011,08,10,12,45,17.80
2011,08,10,12,46,17.90
2011,08,10,12,47,17.90
2011,08,10,12,48,18.00
2011,08,10,12,49,18.10
2011,08,10,12,50,18.20
2011,08,10,12,51,18.30
2011,08,10,12,52,18.30
2011,08,10,12,53,18.30
2011,08,10,12,54,18.30
2011,08,10,12,55,18.30
2011,08,10,12,56,18.30
2011,08,10,12,57,18.30
2011,08,10,12,58,18.30
2011,08,10,12,59,18.30
2011,08,10,13,00,18.30
2011,08,10,13,01,18.30
2011,08,10,13,02,18.30
2011,08,10,13,03,18.30
2011,08,10,13,04,18.30
2011,08,10,13,05,18.30
2011,08,10,13,06,18.20
2011,08,10,13,07,18.20
2011,08,10,13,08,18.20
2011,08,10,13,09,18.30
2011,08,10,13,10,18.30
2011,08,10,13,11,18.40
2011,08,10,13,12,18.50
2011,08,10,13,13,18.50
2011,08,10,13,14,18.60
2011,08,10,13,15,18.60
2011,08,10,13,16,18.60
2011,08,10,13,17,18.60
2011,08,10,13,18,18.60
2011,08,10,13,19,18.70
2011,08,10,13,20,18.70
2011,08,10,13,21,18.70
2011,08,10,13,22,18.70
2011,08,10,13,23,18.70
2011,08,10,13,24,18.70
2011,08,10,13,25,18.70
2011,08,10,13,26,18.70
2011,08,10,13,27,18.70
2011,08,10,13,28,18.70
2011,08,10,13,29,18.70
2011,08,10,13,30,18.60
2011,08,10,13,31,18.60
2011,08,10,13,32,18.60
2011,08,10,13,33,18.60
2011,08,10,13,34,18.70
2011,08,10,13,35,18.80
2011,08,10,13,36,18.80
2011,08,10,13,37,18.70
2011,08,10,13,38,18.70
2011,08,10,13,39,18.70
2011,08,10,13,40,18.80
2011,08,10,13,41,18.80
2011,08,10,13,42,18.80
2011,08,10,13,43,18.80
2011,08,10,13,44,18.70
2011,08,10,13,45,18.70
2011,08,10,13,46,18.70
2011,08,10,13,47,18.70
2011,08,10,13,48,18.80
2011,08,10,13,49,18.80
2011,08,10,13,50,18.80
2011,08,10,13,51,18.90
2011,08,10,13,52,19.00
2011,08,10,13,53,19.00
2011,08,10,13,54,19.00
2011,08,10,13,55,19.00
2011,08,10,13,56,19.10
2011,08,10,13,57,19.10
2011,08,10,13,58,19.20
2011,08,10,13,59,19.20
2011,08,10,14,00,19.20
2011,08,10,14,01,19.10
2011,08,10,14,02,19.10
2011,08,10,14,03,19.10
2011,08,10,14,04,19.10
2011,08,10,14,05,19.10
2011,08,10,14,06,19.10
2011,08,10,14,07,19.20
2011,08,10,14,08,19.20
2011,08,10,14,09,19.20
2011,08,10,14,10,19.20
2011,08,10,14,11,19.20
2011,08,10,14,12,19.10
2011,08,10,14,13,19.10
2011,08,10,14,14,19.10
2011,08,10,14,15,19.10
2011,08,10,14,16,19.10
2011,08,10,14,17,19.10
2011,08,10,14,18,19.20
2011,08,10,14,19,19.30
2011,08,10,14,20,19.40
2011,08,10,14,21,19.40
2011,08,10,14,22,19.50
2011,08,10,14,23,19.60
2011,08,10,14,24,19.50
2011,08,10,14,25,19.50
2011,08,10,14,26,19.40
2011,08,10,14,27,19.40
2011,08,10,14,28,19.30
2011,08,10,14,29,19.20
2011,08,10,14,30,19.10
2011,08,10,14,31,19.00
2011,08,10,14,32,18.90
2011,08,10,14,33,18.90
2011,08,10,14,34,18.90
2011,08,10,14,35,19.00
2011,08,10,14,36,19.00
2011,08,10,14,37,19.10
2011,08,10,14,38,19.20
2011,08,10,14,39,19.20
2011,08,10,14,40,19.20
2011,08,10,14,41,19.30
2011,08,10,14,42,19.30
2011,08,10,14,43,19.30
2011,08,10,14,44,19.20
2011,08,10,14,45,19.20
2011,08,10,14,46,19.20
2011,08,10,14,47,19.20
2011,08,10,14,48,19.20
2011,08,10,14,49,19.20
2011,08,10,14,50,19.10
2011,08,10,14,51,19.20
2011,08,10,14,52,19.20
2011,08,10,14,53,19.20
2011,08,10,14,54,19.30
2011,08,10,14,55,19.30
2011,08,10,14,56,19.30
2011,08,10,14,57,19.30
2011,08,10,14,58,19.30
2011,08,10,14,59,19.30
2011,08,10,15,00,19.20
2011,08,10,15,01,19.20
2011,08,10,15,02,19.30
2011,08,10,15,03,19.30
2011,08,10,15,04,19.40
2011,08,10,15,05,19.40
2011,08,10,15,06,19.40
2011,08,10,15,07,19.40
2011,08,10,15,08,19.40
2011,08,10,15,09,19.50
2011,08,10,15,10,19.50
2011,08,10,15,11,19.50
2011,08,10,15,12,19.50
2011,08,10,15,13,19.40
2011,08,10,15,14,19.40
2011,08,10,15,15,19.30
2011,08,10,15,16,19.30
2011,08,10,15,17,19.20
2011,08,10,15,18,19.20
2011,08,10,15,19,19.10
2011,08,10,15,20,19.10
2011,08,10,15,21,19.20
2011,08,10,15,22,19.20
2011,08,10,15,23,19.30
2011,08,10,15,24,19.30
2011,08,10,15,25,19.40
2011,08,10,15,26,19.50
2011,08,10,15,27,19.60
2011,08,10,15,28,19.70
2011,08,10,15,29,19.70
2011,08,10,15,30,19.70
2011,08,10,15,31,19.70
2011,08,10,15,32,19.70
2011,08,10,15,33,19.60
2011,08,10,15,34,19.50
2011,08,10,15,35,19.40
2011,08,10,15,36,19.40
2011,08,10,15,37,19.50
2011,08,10,15,38,19.50
2011,08,10,15,39,19.60
2011,08,10,15,40,19.60
2011,08,10,15,41,19.70
2011,08,10,15,42,19.70
2011,08,10,15,43,19.70
2011,08,10,15,44,19.70
2011,08,10,15,45,19.70
2011,08,10,15,46,19.70
2011,08,10,15,47,19.70
2011,08,10,15,48,19.70
2011,08,10,15,49,19.70
2011,08,10,15,50,19.70
2011,08,10,15,51,19.80
2011,08,10,15,52,19.80
2011,08,10,15,53,19.80
2011,08,10,15,54,19.90
2011,08,10,15,55,20.00
2011,08,10,15,56,20.00
2011,08,10,15,57,19.90
2011,08,10,15,58,19.90
2011,08,10,15,59,19.90
2011,08,10,16,00,19.90
2011,08,10,16,01,19.80
2011,08,10,16,02,19.80
2011,08,10,16,03,19.70
2011,08,10,16,04,19.60
2011,08,10,16,05,19.60
2011,08,10,16,06,19.70
2011,08,10,16,07,19.70
2011,08,10,16,08,19.80
2011,08,10,16,09,19.80
2011,08,10,16,10,19.80
2011,08,10,16,11,19.70
2011,08,10,16,12,19.70
2011,08,10,16,13,19.70
2011,08,10,16,14,19.70
2011,08,10,16,15,19.80
2011,08,10,16,16,19.80
2011,08,10,16,17,19.80
2011,08,10,16,18,19.90
2011,08,10,16,19,20.00
2011,08,10,16,20,20.10
2011,08,10,16,21,20.20
2011,08,10,16,22,20.40
2011,08,10,16,23,20.50
2011,08,10,16,24,20.60
2011,08,10,16,25,20.70
2011,08,10,16,26,20.70
2011,08,10,16,27,20.70
2011,08,10,16,28,20.70
2011,08,10,16,29,20.60
2011,08,10,16,30,20.60
2011,08,10,16,31,20.60
2011,08,10,16,32,20.50
2011,08,10,16,33,20.50
2011,08,10,16,34,20.40
2011,08,10,16,35,20.40
2011,08,10,16,36,20.30
2011,08,10,16,37,20.30
2011,08,10,16,38,20.20
2011,08,10,16,39,20.20
2011,08,10,16,40,20.10
2011,08,10,16,41,20.10
2011,08,10,16,42,20.20
2011,08,10,16,43,20.30
2011,08,10,16,44,20.30
2011,08,10,16,45,20.30
2011,08,10,16,46,20.30
2011,08,10,16,47,20.30
2011,08,10,16,48,20.30
2011,08,10,16,49,20.40
2011,08,10,16,50,20.40
2011,08,10,16,51,20.40
2011,08,10,16,52,20.40
2011,08,10,16,53,20.30
2011,08,10,16,54,20.30
2011,08,10,16,55,20.40
2011,08,10,16,56,20.40
2011,08,10,16,57,20.50
2011,08,10,16,58,20.50
2011,08,10,16,59,20.60
2011,08,10,17,00,20.50
2011,08,10,17,01,20.50
2011,08,10,17,02,20.50
2011,08,10,17,03,20.60
2011,08,10,17,04,20.60
2011,08,10,17,05,20.60
2011,08,10,17,06,20.60
2011,08,10,17,07,20.60
2011,08,10,17,08,20.70
2011,08,10,17,09,20.70
2011,08,10,17,10,20.80
2011,08,10,17,11,20.80
2011,08,10,17,12,20.90
2011,08,10,17,13,20.90
2011,08,10,17,14,20.90
2011,08,10,17,15,20.80
2011,08,10,17,16,20.70
2011,08,10,17,17,20.60
2011,08,10,17,18,20.60
2011,08,10,17,19,20.50